Location: LDNL
(36.4545°S, 141.6685°E)
Time: 11:46:29
(UTC+10:00)

Tiros 1 despin weight - Pass Details

Date: 16 August 2022
Orbit: 590 x 639 km, 48.2° (Epoch: 23 September)

Event Time Altitude Azimuth Distance (km) Brightness Sun altitude
Rises 00:29:20 0° 269° (W) 2,902 - -67.4°
Reaches altitude 10° 00:31:56 10° 256° (WSW) 2,008 - -67.4°
Maximum altitude 00:35:52 27° 198° (SSW) 1,233 - -67.5°
Drops below altitude 10° 00:39:52 10° 140° (SE) 2,040 - -67.5°
Sets 00:42:32 0° 127° (SE) 2,957 - -67.4°
